This is the latest recevied weather packets stored in our database for station/object SP4MGL-10. If no packets are shown the sender has not sent any weather packets the latest 10 day(s).
| Time | Temp. | Humidity | Pressure | Rain* | Wind** | Luminosity | Snow |
|---|---|---|---|---|---|---|---|
| 1788350052 | 18.89° C | 68% | 1020.2 hPa | - | - | - | - |
| 1788349152 | 17.78° C | 78% | 1020.3 hPa | - | - | - | - |
| 1788348252 | 17.78° C | 76% | 1020.3 hPa | - | - | - | - |
| 1788347352 | 17.22° C | 81% | 1020.3 hPa | - | - | - | - |
| 1788346452 | 16.67° C | 82% | 1020.3 hPa | - | - | - | - |
| 1788345551 | 17.78° C | 74% | 1020.2 hPa | - | - | - | - |
| 1788344651 | 18.33° C | 73% | 1020.2 hPa | - | - | - | - |
| 1788343751 | 18.33° C | 76% | 1020.4 hPa | - | - | - | - |
| 1788342851 | 17.78° C | 80% | 1020.3 hPa | - | - | - | - |
| 1788341951 | 16.67° C | 83% | 1020.4 hPa | - | - | - | - |
| 1788341051 | 16.67° C | 85% | 1020.5 hPa | - | - | - | - |
| 1788340151 | 16.11° C | 87% | 1020.5 hPa | - | - | - | - |
| 1788339251 | 16.11° C | 89% | 1020.6 hPa | - | - | - | - |
| 1788338351 | 15.56° C | 91% | 1020.5 hPa | - | - | - | - |
| 1788337450 | 15.56° C | 93% | 1020.4 hPa | - | - | - | - |
| 1788336550 | 14.44° C | 98% | 1020.3 hPa | - | - | - | - |
| 1788335650 | 14.44° C | 99% | 1020.3 hPa | - | - | - | - |
| 1788334750 | 13.89° C | 99% | 1020.2 hPa | - | - | - | - |
| 1788333850 | 13.89° C | 100% | 1019.9 hPa | - | - | - | - |
| 1788332950 | 13.89° C | 100% | 1019.8 hPa | - | - | - | - |
| 1788332050 | 13.33° C | 100% | 1019.6 hPa | - | - | - | - |
| 1788331150 | 13.33° C | 100% | 1019.6 hPa | - | - | - | - |
| 1788330250 | 13.33° C | 100% | 1019.4 hPa | - | - | - | - |
| 1788329350 | 13.33° C | 100% | 1019.4 hPa | - | - | - | - |
| 1788328449 | 12.78° C | 100% | 1019.4 hPa | - | - | - | - |
* Rain since midnight (hover to see other rain measurements)
** Current wind speed in m/s (hover to see current wind gust speed)